When you browse on this site, cookies collect data to enhance your experience and personalize the content and advertising you see.
Visit our Privacy Policy to learn more. By continuing to use the site, you agree to this use of cookies and data.
  • In Sweden
  • List of Countries
  • For 7 days
  • Water Temperature
  • Satellite Maps
  • Weather Map
  • Weather Widgets
  • user-avatar
    Login

    Hourly Weather Anantnag

    Today, 13 December, Thursday

    Time Temperature Precipitation Wind Pressure Humidity
    00:00 +2°C° 0.3 mm 1 mps 626 mmHg 82%
    01:00 +2°C° 0.3 mm 1 mps 626 mmHg 82%
    02:00 +2°C° 0.3 mm 1 mps 626 mmHg 82%
    03:00 +2°C° 0.3 mm 1 mps 626 mmHg 82%
    04:00 +2°C° 0.3 mm 1 mps 627 mmHg 82%
    05:00 +2°C° 0 mm 1 mps 627 mmHg 83%
    06:00 +3°C° 0.3 mm 1 mps 627 mmHg 81%
    07:00 +3°C° 0.3 mm 1 mps 627 mmHg 80%
    08:00 +3°C° 0.3 mm 1 mps 627 mmHg 79%
    09:00 +4°C° 0.2 mm 1 mps 627 mmHg 76%
    10:00 +5°C° 0.2 mm 1 mps 627 mmHg 73%
    11:00 +6°C° 0.2 mm 1 mps 628 mmHg 70%
    12:00 +6°C° 0.2 mm 1 mps 627 mmHg 69%
    13:00 +7°C° 0.2 mm 1 mps 627 mmHg 68%
    14:00 +7°C° 0.2 mm 1 mps 627 mmHg 68%
    15:00 +6°C° 0.1 mm 1 mps 626 mmHg 72%
    16:00 +4°C° 0.1 mm 1 mps 626 mmHg 76%
    17:00 +2°C° 0.1 mm 0 mps 626 mmHg 80%
    18:00 +2°C° 0.1 mm 1 mps 626 mmHg 79%
    19:00 +2°C° 0.1 mm 1 mps 626 mmHg 78%
    20:00 +1°C° 0.1 mm 1 mps 627 mmHg 78%
    21:00 +1°C° 0 mm 1 mps 627 mmHg 76%
    22:00 -1°C° 0 mm 2 mps 627 mmHg 74%
    23:00 -1°C° 0 mm 2 mps 628 mmHg 72%

    Tomorrow, 14 December, Friday

    Time Temperature Precipitation Wind Pressure Humidity
    00:00 -2°C° 0 mm 2 mps 628 mmHg 71%
    01:00 -2°C° 0 mm 2 mps 628 mmHg 69%
    02:00 -2°C° 0 mm 2 mps 628 mmHg 68%
    03:00 -2°C° 0 mm 2 mps 628 mmHg 67%
    04:00 -3°C° 0 mm 2 mps 628 mmHg 65%
    05:00 -3°C° 0 mm 2 mps 628 mmHg 64%
    06:00 -2°C° 0 mm 2 mps 629 mmHg 62%
    07:00 -2°C° 0 mm 2 mps 629 mmHg 60%
    08:00 -1°C° 0 mm 2 mps 630 mmHg 58%
    09:00 +2°C° 0 mm 2 mps 630 mmHg 54%
    10:00 +4°C° 0 mm 2 mps 630 mmHg 50%
    11:00 +6°C° 0 mm 2 mps 630 mmHg 46%
    12:00 +6°C° 0 mm 2 mps 630 mmHg 46%
    13:00 +8°C° 0 mm 1 mps 630 mmHg 46%
    14:00 +8°C° 0 mm 1 mps 629 mmHg 46%
    15:00 +5°C° 0 mm 2 mps 629 mmHg 51%
    16:00 +3°C° 0 mm 2 mps 629 mmHg 56%
    17:00 +1°C° 0 mm 2 mps 628 mmHg 61%
    18:00 -1°C° 0 mm 2 mps 629 mmHg 59%
    19:00 -1°C° 0 mm 3 mps 630 mmHg 57%
    20:00 -2°C° 0 mm 3 mps 630 mmHg 55%
    21:00 -2°C° 0 mm 3 mps 630 mmHg 53%
    22:00 -2°C° 0 mm 3 mps 631 mmHg 50%
    23:00 -2°C° 0 mm 3 mps 631 mmHg 47%

    Day after tomorrow, 15 December, Saturday

    Time Temperature Precipitation Wind Pressure Humidity
    00:00 -2°C° 0 mm 3 mps 631 mmHg 46%
    01:00 -4°C° 0 mm 3 mps 631 mmHg 45%
    02:00 -4°C° 0 mm 3 mps 631 mmHg 45%
    03:00 -4°C° 0 mm 3 mps 630 mmHg 44%
    04:00 -4°C° 0 mm 3 mps 630 mmHg 44%
    05:00 -4°C° 0 mm 3 mps 630 mmHg 43%
    06:00 -2°C° 0 mm 3 mps 631 mmHg 43%
    07:00 -2°C° 0 mm 3 mps 631 mmHg 42%
    08:00 -1°C° 0 mm 3 mps 631 mmHg 42%
    09:00 +2°C° 0 mm 3 mps 632 mmHg 40%
    10:00 +5°C° 0 mm 2 mps 632 mmHg 38%
    11:00 +8°C° 0 mm 2 mps 632 mmHg 36%
    12:00 +9°C° 0 mm 2 mps 632 mmHg 37%
    13:00 +10°C° 0 mm 1 mps 631 mmHg 38%
    14:00 +11°C° 0 mm 1 mps 631 mmHg 39%
    15:00 +8°C° 0 mm 1 mps 630 mmHg 40%
    16:00 +5°C° 0 mm 2 mps 630 mmHg 41%
    17:00 +2°C° 0 mm 2 mps 629 mmHg 43%
    18:00 +1°C° 0 mm 3 mps 630 mmHg 42%
    19:00 0°C° 0 mm 3 mps 630 mmHg 41%
    20:00 0°C° 0 mm 3 mps 631 mmHg 40%
    21:00 0°C° 0 mm 3 mps 631 mmHg 38%
    22:00 0°C° 0 mm 3 mps 631 mmHg 37%
    23:00 -1°C° 0 mm 3 mps 631 mmHg 35%

    16 December, Sunday

    Time Temperature Precipitation Wind Pressure Humidity
    00:00 -1°C° 0 mm 3 mps 631 mmHg 34%
    01:00 -1°C° 0 mm 3 mps 630 mmHg 33%
    02:00 -1°C° 0 mm 3 mps 630 mmHg 31%
    03:00 -1°C° 0 mm 3 mps 630 mmHg 31%
    04:00 -1°C° 0 mm 3 mps 630 mmHg 30%
    05:00 -1°C° 0 mm 3 mps 630 mmHg 30%
    06:00 0°C° 0 mm 3 mps 631 mmHg 30%
    07:00 0°C° 0 mm 3 mps 631 mmHg 31%
    08:00 +1°C° 0 mm 3 mps 632 mmHg 31%
    09:00 +4°C° 0 mm 3 mps 632 mmHg 32%
    10:00 +8°C° 0 mm 2 mps 632 mmHg 32%
    11:00 +11°C° 0 mm 1 mps 633 mmHg 33%
    12:00 +12°C° 0 mm 1 mps 632 mmHg 33%
    13:00 +12°C° 0 mm 1 mps 632 mmHg 33%
    14:00 +12°C° 0 mm 1 mps 631 mmHg 32%
    15:00 +10°C° 0 mm 1 mps 630 mmHg 35%
    16:00 +7°C° 0 mm 2 mps 630 mmHg 37%
    17:00 +4°C° 0 mm 2 mps 629 mmHg 39%
    18:00 +3°C° 0 mm 3 mps 629 mmHg 38%
    19:00 +2°C° 0 mm 3 mps 630 mmHg 38%
    20:00 +1°C° 0 mm 3 mps 630 mmHg 38%
    21:00 +1°C° 0 mm 3 mps 630 mmHg 36%
    22:00 +1°C° 0 mm 3 mps 630 mmHg 34%
    23:00 +1°C° 0 mm 3 mps 630 mmHg 32%

    17 December, Monday

    Time Temperature Precipitation Wind Pressure Humidity
    00:00 +1°C° 0 mm 3 mps 630 mmHg 31%
    01:00 +1°C° 0 mm 3 mps 630 mmHg 29%
    02:00 +1°C° 0 mm 3 mps 629 mmHg 28%
    03:00 +1°C° 0 mm 3 mps 629 mmHg 27%
    04:00 0°C° 0 mm 3 mps 629 mmHg 27%
    05:00 0°C° 0 mm 3 mps 629 mmHg 26%
    06:00 +1°C° 0 mm 3 mps 629 mmHg 26%
    07:00 +1°C° 0 mm 3 mps 630 mmHg 27%
    08:00 +2°C° 0 mm 3 mps 630 mmHg 27%
    09:00 +6°C° 0 mm 2 mps 630 mmHg 28%
    10:00 +8°C° 0 mm 2 mps 631 mmHg 28%
    11:00 +12°C° 0 mm 1 mps 631 mmHg 28%
    12:00 +12°C° 0 mm 1 mps 631 mmHg 31%
    13:00 +12°C° 0 mm 1 mps 630 mmHg 34%
    14:00 +13°C° 0 mm 1 mps 630 mmHg 36%
    15:00 +10°C° 0 mm 1 mps 629 mmHg 36%
    16:00 +8°C° 0 mm 1 mps 628 mmHg 35%
    17:00 +4°C° 0 mm 2 mps 627 mmHg 35%
    18:00 +4°C° 0 mm 2 mps 628 mmHg 35%
    19:00 +3°C° 0 mm 2 mps 628 mmHg 34%
    20:00 +1°C° 0 mm 3 mps 629 mmHg 34%
    21:00 +1°C° 0 mm 3 mps 629 mmHg 33%
    22:00 +1°C° 0 mm 3 mps 629 mmHg 31%
    23:00 +1°C° 0 mm 3 mps 629 mmHg 29%

    18 December, Tuesday

    Time Temperature Precipitation Wind Pressure Humidity
    00:00 +1°C° 0 mm 3 mps 629 mmHg 28%
    01:00 +1°C° 0 mm 3 mps 628 mmHg 27%
    02:00 +1°C° 0 mm 3 mps 628 mmHg 26%
    03:00 +1°C° 0 mm 3 mps 628 mmHg 25%
    04:00 +1°C° 0 mm 3 mps 628 mmHg 25%
    05:00 +1°C° 0 mm 3 mps 628 mmHg 25%
    06:00 +1°C° 0 mm 3 mps 628 mmHg 26%
    07:00 +2°C° 0 mm 3 mps 629 mmHg 27%
    08:00 +2°C° 0 mm 3 mps 629 mmHg 28%
    09:00 +6°C° 0 mm 2 mps 630 mmHg 29%
    10:00 +8°C° 0 mm 2 mps 630 mmHg 29%
    11:00 +12°C° 0 mm 2 mps 630 mmHg 30%
    12:00 +12°C° 0 mm 1 mps 630 mmHg 31%
    13:00 +13°C° 0 mm 1 mps 629 mmHg 32%
    14:00 +13°C° 0 mm 1 mps 628 mmHg 32%
    15:00 +11°C° 0 mm 1 mps 628 mmHg 34%
    16:00 +8°C° 0 mm 2 mps 627 mmHg 35%
    17:00 +6°C° 0 mm 2 mps 626 mmHg 36%
    18:00 +5°C° 0 mm 2 mps 627 mmHg 36%
    19:00 +4°C° 0 mm 3 mps 627 mmHg 36%
    20:00 +3°C° 0 mm 3 mps 627 mmHg 35%
    21:00 +3°C° 0 mm 3 mps 627 mmHg 33%
    22:00 +3°C° 0 mm 3 mps 627 mmHg 31%
    23:00 +3°C° 0 mm 3 mps 627 mmHg 29%
    Show more